GRUS-1D

导读 | 豆包AI

GRUS-1D是由日本发射的人造卫星,于2021年3月22日08:00升空。它属于GRUS系列卫星,该系列卫星主要服务于对地观测领域,GRUS-1D承续系列任务目标,依托自身遥感设备获取地球观测数据,为相关领域科研、环境监测等应用提供信息支持,推进日本对地观测卫星网络的布局与数据积累。

基本信息
目录编号:
47936
目录名称:
GRUS-1D
国际标识:
2021-022E
轨道中心:
EARTH
卫星名称:
GRUS-1D
卫星全名:
--
卫星状态:
在轨 (已飞行1865 天)
发射日期:
2021-03-22 UTC
国别 :
日本 (JP)
星等 :
--
轨道信息
数据来源 国际轨道数据
星历时间: 2026-04-30T23:51:44+0800
6小时前
查看轨道信息
半长轴: 6949.426km
偏心率: 0.0012335
轨道倾角: 97.546°
近地点辐角 103.783°
升交点赤经 5.622°
平近点角 256.477°
近地点: 562.716km
远地点: 579.862km
周期: 96.091分钟
每日圈数: 14.985781
详细信息
使用方式:
暂无
2D轨道图
3D轨道图
轨道高度分析图
轨道倾角分析图
轨道综合分析图
查看轨道综合分析图